This is the latest recevied weather packets stored in our database for station/object N1PRS-9. If no packets are shown the sender has not sent any weather packets the latest 10 day(s).
| Time | Temp. | Humidity | Pressure | Rain* | Wind** | Luminosity | Snow |
|---|---|---|---|---|---|---|---|
| 1777644333 | 10.56° C | 61% | 1011.9 hPa | 0 mm | - | 134 W/m² | - |
| 1777643150 | 9.44° C | 67% | 1011.9 hPa | 0 mm | - | 53 W/m² | - |
| 1777642248 | 9.44° C | 69% | 1012.1 hPa | 0 mm | - | 127 W/m² | - |
| 1777641357 | 8.89° C | 69% | 1012.1 hPa | 0 mm | - | 33 W/m² | - |
| 1777640454 | 8.89° C | 71% | 1012.1 hPa | 0 mm | - | 40 W/m² | - |
| 1777640133 | 8.89° C | 72% | 1012 hPa | 0 mm | - | 30 W/m² | - |
| 1777639235 | 8.33° C | 74% | 1012.1 hPa | 0 mm | - | 81 W/m² | - |
| 1777638645 | 7.78° C | 76% | 1012 hPa | 0 mm | - | 121 W/m² | - |
| 1777637433 | 7.22° C | 80% | 1012 hPa | 0 mm | - | 105 W/m² | - |
| 1777635332 | 5.56° C | 84% | 1011.8 hPa | 0 mm | - | 21 W/m² | - |
| 1777633533 | 5° C | 87% | 1011.4 hPa | 0 mm | - | 44 W/m² | - |
| 1777632633 | 4.44° C | 88% | 1011.4 hPa | 0 mm | - | 19 W/m² | - |
| 1777631735 | 4.44° C | 88% | 1011.3 hPa | 0 mm | - | 32 W/m² | - |
| 1777631451 | 4.44° C | 87% | 1011.2 hPa | 0 mm | - | 30 W/m² | - |
| 1777626332 | 5.56° C | 82% | 1010.2 hPa | 0 mm | - | 0 W/m² | - |
| 1777624835 | 5.56° C | 82% | 1010.2 hPa | 0 mm | - | 0 W/m² | - |
| 1777622445 | 5.56° C | 81% | 1010.2 hPa | 0 mm | - | 0 W/m² | - |
| 1777620677 | 6.11° C | 81% | 1010.1 hPa | 0 mm | - | 0 W/m² | - |
| 1777620334 | 6.11° C | 80% | 1010.1 hPa | 0 mm | - | 0 W/m² | - |
| 1777619133 | 6.11° C | 80% | 1010 hPa | 0 mm | - | 0 W/m² | - |
| 1777616145 | 6.67° C | 78% | 1009.9 hPa | 0 mm | - | 0 W/m² | - |
| 1777614032 | 7.78° C | 75% | 1010 hPa | 0 mm | - | 0 W/m² | - |
| 1777612546 | 7.78° C | 74% | 1010 hPa | 0 mm | - | 0 W/m² | - |
| 1777612233 | 7.78° C | 75% | 1010 hPa | 0 mm | - | 0 W/m² | - |
| 1777611036 | 7.78° C | 75% | 1010.1 hPa | 0 mm | - | 0 W/m² | - |
* Rain latest hour (hover to see other rain measurements)
** Current wind speed in m/s (hover to see current wind gust speed)